CW5478 Weather Reports


Display with metric or nautical units.
time (UTC)temp
F
wind
direction
speed
MPH
gust
MPH
rain 1hr
in
rain 24hr
in
rain mn
in
humidity
%
barometer
mb
20260903034303 65 249 8.0 14.0 0.00 0.00 0.00 36 1028.4
20260903033803 65 299 2.0 9.0 0.00 0.00 0.00 36 1028.4
20260903033303 66 341 6.0 14.0 0.00 0.00 0.00 36 1028.4
20260903032803 65 353 5.0 7.0 0.00 0.00 0.00 36 1028.4
20260903032305 66 232 5.0 8.0 0.00 0.00 0.00 35 1028.4
20260903031803 66 270 2.0 8.0 0.00 0.00 0.00 35 1028.4
20260903030803 66 191 9.0 20.0 0.00 0.00 0.00 34 1028.4
20260903030303 66 209 6.0 9.0 0.00 0.00 0.00 34 1028.4
20260903025803 66 265 9.0 17.0 0.00 0.00 0.00 34 1028.4
20260903025305 66 212 9.0 14.0 0.00 0.00 0.00 33 1028.4
20260903024802 67 198 10.0 15.0 0.00 0.00 0.00 32 1028.4
20260903023803 67 226 11.0 16.0 0.00 0.00 0.00 31 1028.1
20260903023303 67 225 10.0 22.0 0.00 0.00 0.00 31 1028.1
20260903022803 67 225 7.0 13.0 0.00 0.00 0.00 31 1028.1
20260903022306 67 181 12.0 18.0 0.00 0.00 0.00 31 1028.1
20260903021303 67 171 5.0 16.0 0.00 0.00 0.00 31 1028.1
20260903020803 67 202 6.0 9.0 0.00 0.00 0.00 31 1028.1
20260903020303 67 231 5.0 8.0 0.00 0.00 0.00 31 1028.1
20260903015802 67 220 5.0 10.0 0.00 0.00 0.00 30 1028.1
20260903015305 68 229 8.0 16.0 0.00 0.00 0.00 30 1028.1
20260903014803 67 209 12.0 20.0 0.00 0.00 0.00 31 1028.0
20260903014302 68 225 7.0 15.0 0.00 0.00 0.00 31 1027.8
20260903013303 69 244 9.0 17.0 0.00 0.00 0.00 29 1027.7
20260903012803 69 224 12.0 18.0 0.00 0.00 0.00 29 1027.7
20260903012306 69 242 12.0 17.0 0.00 0.00 0.00 29 1027.7
20260903011803 69 256 11.0 16.0 0.00 0.00 0.00 28 1027.7
20260903011303 69 229 9.0 16.0 0.00 0.00 0.00 28 1027.5
20260903010803 69 240 10.0 15.0 0.00 0.00 0.00 28 1027.7
20260903010302 70 225 11.0 16.0 0.00 0.00 0.00 27 1027.4
20260903005306 70 264 9.0 20.0 0.00 0.00 0.00 26 1027.4
20260903004803 70 225 10.0 18.0 0.00 0.00 0.00 27 1027.4
20260903004303 71 234 10.0 14.0 0.00 0.00 0.00 27 1027.4
20260903003803 72 256 7.0 12.0 0.00 0.00 0.00 26 1027.4
20260903003303 73 225 10.0 18.0 0.00 0.00 0.00 26 1027.4
20260903002803 75 203 5.0 9.0 0.00 0.00 0.00 24 1027.4
20260903002306 76 197 9.0 15.0 0.00 0.00 0.00 24 1027.3
20260903001802 75 172 6.0 14.0 0.00 0.00 0.00 24 1027.1
20260903001303 75 198 6.0 13.0 0.00 0.00 0.00 24 1027.4
20260903000303 75 270 5.0 8.0 0.00 0.00 0.00 24 1027.1
20260902235803 76 270 1.0 3.0 0.00 0.00 0.00 23 1027.1
20260902235305 76 218 6.0 12.0 0.00 0.00 0.00 23 1027.1
20260902234803 75 218 9.0 13.0 0.00 0.00 0.00 24 1027.1
20260902234303 75 190 6.0 12.0 0.00 0.00 0.00 24 1027.1
20260902233802 76 205 9.0 18.0 0.00 0.00 0.00 23 1027.1
20260902233303 75 173 7.0 12.0 0.00 0.00 0.00 24 1027.3
20260902232802 75 252 3.0 8.0 0.00 0.00 0.00 24 1027.3
20260902232306 75 270 4.0 7.0 0.00 0.00 0.00 24 1027.1
20260902231804 76 168 5.0 8.0 0.00 0.00 0.00 23 1027.4
20260902230803 77 174 10.0 14.0 0.00 0.00 0.00 24 1027.4
20260902230303 78 172 3.0 9.0 0.00 0.00 0.00 23 1027.4
20260902225803 77 149 7.0 15.0 0.00 0.00 0.00 23 1027.4
20260902224803 76 225 5.0 13.0 0.00 0.00 0.00 24 1027.4
20260902224303 75 198 11.0 17.0 0.00 0.00 0.00 25 1027.7
20260902223803 75 225 8.0 13.0 0.00 0.00 0.00 25 1027.7
20260902222803 77 218 5.0 20.0 0.00 0.00 0.00 25 1027.4
20260902221803 76 95 4.0 8.0 0.00 0.00 0.00 26 1027.7
20260902221303 76 174 7.0 12.0 0.00 0.00 0.00 26 1027.7
20260902220803 75 228 10.0 23.0 0.00 0.00 0.00 27 1027.7
20260902220303 74 277 9.0 18.0 0.00 0.00 0.00 27 1027.9
20260902215803 74 270 5.0 13.0 0.00 0.00 0.00 27 1027.7
20260902215306 75 241 7.0 17.0 0.00 0.00 0.00 26 1028.1
20260902214303 76 224 12.0 20.0 0.00 0.00 0.00 27 1028.1
20260902213803 76 296 6.0 12.0 0.00 0.00 0.00 26 1028.1
20260902213303 77 195 5.0 15.0 0.00 0.00 0.00 26 1028.1
20260902212803 76 182 9.0 17.0 0.00 0.00 0.00 27 1028.3
20260902212305 75 180 13.0 16.0 0.00 0.00 0.00 28 1028.1
20260902211803 74 309 7.0 12.0 0.00 0.00 0.00 28 1028.1
20260902211303 74 134 2.0 9.0 0.00 0.00 0.00 28 1028.1
20260902210803 74 211 10.0 15.0 0.00 0.00 0.00 29 1028.4
20260902205803 73 307 8.0 14.0 0.00 0.00 0.00 30 1028.4
20260902205306 73 278 6.0 14.0 0.00 0.00 0.00 30 1028.4
20260902204803 73 311 9.0 13.0 0.00 0.00 0.00 30 1028.4
20260902204303 73 190 7.0 20.0 0.00 0.00 0.00 30 1028.7
20260902203303 73 226 13.0 21.0 0.00 0.00 0.00 30 1028.5
20260902202803 73 218 10.0 18.0 0.00 0.00 0.00 30 1028.4
20260902202306 73 220 10.0 26.0 0.00 0.00 0.00 30 1028.7
20260902201803 72 207 18.0 30.0 0.00 0.00 0.00 31 1028.7
20260902201303 73 230 13.0 23.0 0.00 0.00 0.00 31 1028.8
20260902200803 72 233 11.0 24.0 0.00 0.00 0.00 31 1029.1
20260902200303 73 266 12.0 26.0 0.00 0.00 0.00 31 1028.7
20260902195803 74 253 8.0 14.0 0.00 0.00 0.00 31 1029.1
20260902195306 73 213 10.0 18.0 0.00 0.00 0.00 32 1029.1
20260902194803 72 231 9.0 17.0 0.00 0.00 0.00 32 1028.8
20260902194304 71 201 11.0 17.0 0.00 0.00 0.00 32 1029.1
20260902192803 72 233 12.0 21.0 0.00 0.00 0.00 31 1029.1
20260902192306 72 214 9.0 15.0 0.00 0.00 0.00 33 1029.4
20260902191803 72 231 7.0 13.0 0.00 0.00 0.00 33 1029.1
20260902191303 72 257 9.0 13.0 0.00 0.00 0.00 32 1029.1
20260902190803 73 204 2.0 6.0 0.00 0.00 0.00 32 1029.1
20260902190303 72 161 5.0 12.0 0.00 0.00 0.00 33 1029.1
20260902185803 71 208 6.0 18.0 0.00 0.00 0.00 33 1029.3
20260902185306 70 242 4.0 18.0 0.00 0.00 0.00 33 1029.4
20260902184803 71 221 6.0 13.0 0.00 0.00 0.00 33 1029.7
20260902184303 72 281 13.0 18.0 0.00 0.00 0.00 32 1029.4
20260902183803 71 200 11.0 22.0 0.00 0.00 0.00 33 1029.5
20260902182803 70 266 9.0 20.0 0.00 0.00 0.00 35 1029.8
20260902182306 69 253 13.0 18.0 0.00 0.00 0.00 35 1029.8
20260902181803 69 203 7.0 23.0 0.00 0.00 0.00 36 1029.8
20260902181303 70 265 13.0 21.0 0.00 0.00 0.00 35 1029.8
20260902180803 70 222 12.0 22.0 0.00 0.00 0.00 36 1029.8
20260902180303 69 268 10.0 20.0 0.00 0.00 0.00 36 1030.0
20260902175802 69 271 14.0 24.0 0.00 0.00 0.00 36 1029.8
20260902175307 69 256 15.0 26.0 0.00 0.00 0.00 36 1030.0
20260902174803 69 281 16.0 26.0 0.00 0.00 0.00 36 1030.0
20260902174303 69 258 12.0 20.0 0.00 0.00 0.00 36 1030.1
20260902173803 69 243 14.0 20.0 0.00 0.00 0.00 36 1030.1
20260902172803 68 266 16.0 25.0 0.00 0.00 0.00 36 1029.9
20260902172308 68 232 15.0 24.0 0.00 0.00 0.00 36 1030.1
20260902171803 68 271 15.0 21.0 0.00 0.00 0.00 36 1030.1
20260902171302 68 226 14.0 22.0 0.00 0.00 0.00 37 1030.1
20260902170802 68 238 14.0 22.0 0.00 0.00 0.00 37 1030.1
20260902170303 68 247 14.0 24.0 0.00 0.00 0.00 37 1030.1
20260902165804 68 253 15.0 24.0 0.00 0.00 0.00 36 1030.1
20260902165308 69 243 12.0 32.0 0.00 0.00 0.00 37 1030.1
20260902164803 68 225 10.0 20.0 0.00 0.00 0.00 36 1030.1
20260902164303 67 225 7.0 20.0 0.00 0.00 0.00 37 1030.4
20260902163303 68 225 9.0 26.0 0.00 0.00 0.00 37 1030.1
20260902162803 67 214 11.0 18.0 0.00 0.00 0.00 38 1030.1
20260902162306 67 228 4.0 15.0 0.00 0.00 0.00 39 1030.1
20260902161803 67 271 7.0 14.0 0.00 0.00 0.00 39 1030.1
20260902161303 67 257 12.0 20.0 0.00 0.00 0.00 40 1030.1
20260902160803 67 233 5.0 12.0 0.00 0.00 0.00 40 1030.1
20260902160303 66 269 10.0 15.0 0.00 0.00 0.00 40 1030.1
20260902154803 66 261 10.0 23.0 0.00 0.00 0.00 41 1030.1
20260902154303 65 225 7.0 13.0 0.00 0.00 0.00 41 1030.3
20260902153803 65 255 11.0 20.0 0.00 0.00 0.00 41 1030.3
20260902152804 65 209 10.0 22.0 0.00 0.00 0.00 41 1030.3
20260902151803 64 233 11.0 20.0 0.00 0.00 0.00 42 1030.4
20260902151303 65 233 10.0 23.0 0.00 0.00 0.00 41 1030.4
20260902150803 65 225 12.0 18.0 0.00 0.00 0.00 41 1030.4
20260902150303 65 220 12.0 20.0 0.00 0.00 0.00 41 1030.2
20260902145803 65 232 9.0 13.0 0.00 0.00 0.00 41 1030.4
20260902145306 65 250 6.0 18.0 0.00 0.00 0.00 41 1030.4
20260902144803 65 261 7.0 12.0 0.00 0.00 0.00 41 1030.4
20260902143803 65 230 6.0 10.0 0.00 0.00 0.00 41 1030.4
20260902143303 65 264 6.0 14.0 0.00 0.00 0.00 41 1030.4
20260902142306 65 193 6.0 10.0 0.00 0.00 0.00 40 1030.3
20260902141803 65 209 11.0 18.0 0.00 0.00 0.00 41 1030.3
20260902140803 64 159 5.0 10.0 0.00 0.00 0.00 41 1030.3
20260902140303 64 315 6.0 10.0 0.00 0.00 0.00 42 1030.1
20260902135803 63 263 3.0 7.0 0.00 0.00 0.00 42 1030.4
20260902135306 63 270 5.0 13.0 0.00 0.00 0.00 43 1030.1
20260902134303 62 270 7.0 12.0 0.00 0.00 0.00 45 1030.4
20260902133803 62 270 5.0 8.0 0.00 0.00 0.00 45 1030.1
20260902133303 62 295 5.0 8.0 0.00 0.00 0.00 45 1030.1
20260902132803 61 280 10.0 14.0 0.00 0.00 0.00 47 1030.1
20260902132306 60 241 0.0 5.0 0.00 0.00 0.00 49 1030.1
20260902131804 59 225 0.0 3.0 0.00 0.00 0.00 50 1030.1
20260902130803 58 225 6.0 9.0 0.00 0.00 0.00 49 1030.1
20260902125803 57 225 6.0 8.0 0.00 0.00 0.00 51 1030.1
20260902125305 56 246 6.0 8.0 0.00 0.00 0.00 52 1029.9
20260902124803 56 180 6.0 8.0 0.00 0.00 0.00 52 1029.8
20260902124303 57 276 6.0 8.0 0.00 0.00 0.00 50 1030.1
20260902123803 59 247 7.0 9.0 0.00 0.00 0.00 47 1029.8
20260902122803 58 280 5.0 8.0 0.00 0.00 0.00 48 1029.8
20260902122305 57 306 6.0 8.0 0.00 0.00 0.00 50 1029.8
20260902120803 57 270 5.0 14.0 0.00 0.00 0.00 50 1029.8
20260902120303 56 264 9.0 15.0 0.00 0.00 0.00 52 1029.8
20260902115803 56 225 7.0 8.0 0.00 0.00 0.00 52 1029.6
20260902114803 56 247 2.0 7.0 0.00 0.00 0.00 53 1029.6
20260902114303 55 270 2.0 7.0 0.00 0.00 0.00 56 1029.5
20260902113803 55 232 5.0 9.0 0.00 0.00 0.00 56 1029.6
20260902113303 55 180 4.0 8.0 0.00 0.00 0.00 56 1029.4
20260902112803 54 136 3.0 5.0 0.00 0.00 0.00 58 1029.4
20260902112305 53 180 6.0 9.0 0.00 0.00 0.00 59 1029.6
20260902111804 53 225 6.0 10.0 0.00 0.00 0.00 59 1029.8
20260902111303 53 227 6.0 8.0 0.00 0.00 0.00 59 1029.4
20260902110804 53 135 4.0 6.0 0.00 0.00 0.00 60 1029.4
20260902110303 53 203 7.0 7.0 0.00 0.00 0.00 61 1029.6
20260902105306 53 225 3.0 5.0 0.00 0.00 0.00 62 1029.4
20260902104303 55 229 4.0 6.0 0.00 0.00 0.00 60 1029.4
20260902103303 56 45 6.0 6.0 0.00 0.00 0.00 57 1029.2
20260902102804 56 45 3.0 7.0 0.00 0.00 0.00 57 1029.4
20260902102307 56 90 2.0 5.0 0.00 0.00 0.00 58 1029.4
20260902101804 56 157 0.0 3.0 0.00 0.00 0.00 59 1029.4
20260902101303 56 180 2.0 5.0 0.00 0.00 0.00 59 1029.4
20260902100803 55 225 6.0 8.0 0.00 0.00 0.00 60 1029.6
20260902100303 55 225 6.0 7.0 0.00 0.00 0.00 60 1029.4
20260902095803 55 225 1.0 2.0 0.00 0.00 0.00 61 1029.6
20260902094803 54 198 5.0 7.0 0.00 0.00 0.00 63 1029.8
20260902093803 55 225 6.0 7.0 0.00 0.00 0.00 62 1029.4
20260902092803 56 225 2.0 5.0 0.00 0.00 0.00 60 1029.8
20260902092305 57 207 5.0 6.0 0.00 0.00 0.00 59 1029.8
20260902091803 57 135 0.0 3.0 0.00 0.00 0.00 59 1029.8
20260902091303 59 225 4.0 6.0 0.00 0.00 0.00 57 1029.8
20260902090803 60 171 5.0 6.0 0.00 0.00 0.00 54 1029.8
20260902090303 61 48 3.0 12.0 0.00 0.00 0.00 52 1029.6
20260902085803 62 53 6.0 15.0 0.00 0.00 0.00 52 1029.8
20260902085306 61 341 7.0 23.0 0.00 0.00 0.00 54 1029.6
20260902084804 60 325 7.0 16.0 0.00 0.01 0.00 55 1029.4
20260902084303 61 327 5.0 13.0 0.00 0.01 0.00 54 1029.8
20260902083303 60 237 6.0 12.0 0.00 0.01 0.00 56 1029.8
20260902082803 59 283 5.0 17.0 0.00 0.02 0.00 57 1029.6
20260902081803 58 346 2.0 7.0 0.00 0.02 0.00 59 1029.8
20260902080803 57 225 6.0 7.0 0.00 0.02 0.00 59 1029.8
20260902080303 57 225 2.0 5.0 0.00 0.02 0.00 59 1029.8
20260902075804 57 225 4.0 7.0 0.00 0.02 0.00 59 1029.8
20260902075306 58 180 3.0 7.0 0.00 0.02 0.00 58 1029.8
20260902074803 59 233 2.0 3.0 0.00 0.02 0.00 58 1029.8
20260902074303 58 308 5.0 6.0 0.00 0.02 0.00 59 1029.8
20260902073803 57 258 5.0 8.0 0.00 0.02 0.00 59 1029.8
20260902073303 58 225 6.0 8.0 0.00 0.04 0.00 58 1029.9
20260902072804 58 270 2.0 3.0 0.00 0.06 0.00 58 1029.9
20260902072308 58 315 1.0 2.0 0.00 0.07 0.00 60 1029.8
20260902071804 57 225 1.0 6.0 0.00 0.08 0.00 61 1029.9
20260902071303 56 225 6.0 7.0 0.00 0.08 0.00 62 1029.8
20260902070803 56 225 6.0 7.0 0.00 0.08 0.00 62 1029.8
20260902070303 56 270 3.0 8.0 0.00 0.08 0.00 63 1029.8
20260902065306 55 180 7.0 9.0 0.00 0.08 0.00 64 1029.8
20260902063803 55 247 8.0 10.0 0.00 0.08 0.00 65 1029.8
20260902063304 55 225 8.0 10.0 0.00 0.08 0.00 65 1029.8
20260902062306 56 225 5.0 8.0 0.00 0.08 0.00 64 1029.8
20260902061804 56 270 3.0 5.0 0.00 0.08 0.00 64 1029.9
20260902061304 56 270 0.0 3.0 0.00 0.08 0.00 63 1029.9
20260902060304 57 270 7.0 12.0 0.00 0.08 0.00 62 1029.8
20260902055803 56 259 8.0 12.0 0.00 0.08 0.08 63 1029.8
20260902054803 56 253 8.0 9.0 0.00 0.08 0.08 62 1029.8
20260902054304 57 250 7.0 9.0 0.00 0.08 0.08 62 1029.8
20260902053803 57 225 7.0 9.0 0.00 0.08 0.08 61 1029.8
20260902053303 57 225 6.0 8.0 0.00 0.08 0.08 61 1029.8
20260902052803 57 225 7.0 8.0 0.00 0.08 0.08 61 1029.9
20260902052306 57 225 5.0 7.0 0.00 0.08 0.08 61 1029.9
20260902051803 57 225 3.0 6.0 0.00 0.08 0.08 61 1029.8
20260902051303 57 270 5.0 10.0 0.00 0.08 0.08 61 1029.8
20260902050803 57 270 9.0 13.0 0.00 0.08 0.08 62 1029.8
20260902050303 56 270 6.0 12.0 0.00 0.08 0.08 63 1029.8
20260902045306 57 225 6.0 8.0 0.00 0.08 0.08 62 1029.9
20260902044803 57 225 7.0 8.0 0.00 0.08 0.08 62 1029.8
20260902044304 56 225 7.0 9.0 0.00 0.08 0.08 63 1029.9
20260902043803 57 225 9.0 10.0 0.00 0.08 0.08 63 1029.9
20260902042803 58 180 5.0 8.0 0.00 0.08 0.08 61 1030.1
20260902042308 59 180 5.0 7.0 0.00 0.08 0.08 60 1029.8
20260902041804 58 225 6.0 8.0 0.00 0.08 0.08 60 1029.9
20260902041304 58 225 7.0 9.0 0.00 0.08 0.08 61 1030.1
20260902040303 58 225 8.0 10.0 0.00 0.08 0.08 61 1030.1
20260902035804 58 225 8.0 10.0 0.00 0.08 0.08 61 1029.9
20260902035305 59 197 8.0 10.0 0.00 0.08 0.08 60 1029.9
20260902034803 59 225 7.0 8.0 0.00 0.08 0.08 60 1029.9